CZ-4B DEB, 43430

Orbit data source: Space-Track

CZ-4B DEB, 43430 is space debris in LEO originally from a launch on Thu, 15 Jun 2017 UTC launched from the Jiuquan Satellite Launch Center, China (JSC). Debris objects in space refer to the collection of defunct objects orbiting the Earth. Examples of debris include non-operational satellites, rocket bodies, and fragments generated from explosions, collisions, or faulty payload assembly.

Loading next visibility...
Identifier
43430, 2017-034F
Orbit
LEO
Country
Flag of CNCN / PRC
Related business
Manufacturer
SAST
Mission
Spacecraft
Bus & Motor
Unknown
Mass
Unknown
Launch date (UTC)
2017-06-15 (8 years ago)
Launch vehicle
Unknown
Launch site
Jiuquan Satellite Launch Center, China (JSC)
Object type
Payload
Rocket body
Debris
Shape & HBR
Unknown
Radar Cross Section
Small (<0.1 m²)

Expand to show TLE details & history
Last TLE update: 10 hours ago

TLE from 10 hours ago
0 CZ-4B DEB
1 43430U 17034F   25243.25852577  .00013567  00000-0  12102-2 0  9996
2 43430  42.9937 207.1707 0136766 215.2382 143.9352 14.88922656433059
Epoch: 2025-08-31T06:12Z
TLE epoch observation values (Epoch: 2025-08-31T06:12:16.626Z)
Latitude
-0.00006°
Longitude
134.42032°
Altitude
678.674 km
Speed
7.477 km/s
True Right ascension
13h 48m 40s
True Declination
0° 00' 00"
Sunlit
Object was in daylight at epoch
Visualization orbit readout
Latitude
Unknown
Longitude
Unknown
Altitude
Unknown
Speed
Unknown
Apparent Right ascension
Unknown
Apparent Declination
Unknown
Sunlit
N/A
Visualization observer readout
Local Sidereal Time
07:44:58
Azimuth
Unknown
Elevation
Unknown
Doppler factor
Unknown
Orbital elements
Apogee altitude
698.695 km
Perigee altitude
507.733 km
Semi-major axis
6,981.351 km
Eccentricity
0.01368
Inclination
42.9937°
RAAN
207.1707°
Arg. of periapsis
215.2382°
True anomaly
144.8452°
Mean anomaly
143.9352°
Eccentric anomaly
144.39145°
Mean motion
3.72078 °/min
Orbital period
96.75 mins
BSTAR
0.0012102
Loading maneuver chart data...
Computing Atmospheric mass density...
Loading historical data...
Loading historical data...
Loading historical data...
Loading historical data...
Loading historical data...
Loading historical data...
Loading historical data...

Documentation

Showing up to 5 results
|